Location: Ward Pound Ridge Reservation
(41.2500°N, 73.6000°W)
Time: 11:49:16
(UTC-05:00)

N. Korean satellite - Pass Details

Date: 13 October 2017
Orbit: 461 x 513 km, 97.2° (Epoch: 17 December)

Event Time Altitude Azimuth Distance (km) Brightness Sun altitude
Rises 19:47:39 0° 200° (SSW) 2,551 10.4 -18.0°
Reaches altitude 10° 19:50:12 10° 219° (SW) 1,664 9.7 -18.4°
Maximum altitude 19:52:47 19° 266° (W) 1,215 9.5 -18.9°
Drops below altitude 10° 19:55:21 10° 312° (NW) 1,653 10.0 -19.4°
Sets 19:57:52 0° 331° (NNW) 2,527 10.7 -19.9°
